Location: Caltech
(34.1382°N, 118.1253°W)
Time: 06:03:41
(UTC-07:00)

RS-15 - Visible Passes

Search period start: 25 May 2016 00:00
Search period end: 04 June 2016 00:00
Orbit: 1883 x 2161 km, 64.8° (Epoch: 23 May)

Date Brightness Start Highest point End Pass type
(mag) Time Alt. Az. Time Alt. Az. Time Alt. Az.
25 May 9.7 01:29:00 10° NNW 01:39:11 29° NE 01:49:19 10° E visible
25 May 8.1 03:40:56 10° NNW 03:53:21 88° WSW 04:05:35 10° SSE visible
25 May 10.2 20:14:31 10° W 20:23:48 27° NW 20:33:32 10° NNE visible
25 May 10.4 22:38:21 10° NNW 22:42:42 12° N 22:47:05 10° NNE visible
26 May 9.9 00:53:06 10° NNW 01:02:15 23° NE 01:11:24 10° E visible
26 May 8.3 03:04:52 10° NNW 03:17:16 75° ENE 03:29:29 10° SE visible
26 May 8.8 05:19:00 10° NW 05:28:34 28° WSW 05:38:04 10° SSW visible
26 May 10.4 22:00:07 10° NW 22:05:05 13° N 22:10:07 10° NNE visible
27 May 10.1 00:17:09 10° NNW 00:25:08 19° NNE 00:33:08 10° ENE visible
27 May 8.6 02:28:52 10° NNW 02:41:03 59° NE 02:53:04 10° SE visible
27 May 8.5 04:42:08 10° NW 04:52:58 38° WSW 05:03:41 10° SSW visible
27 May 10.4 21:21:34 10° NW 21:27:34 15° NNW 21:33:43 10° NNE visible
27 May 10.2 23:41:06 10° NNW 23:47:49 16° NNE 23:54:34 10° NE visible
28 May 8.9 01:52:56 10° NNW 02:04:41 47° NE 02:16:19 10° ESE visible
28 May 8.3 04:05:36 10° NW 04:17:15 51° WSW 04:28:45 10° S visible
28 May 10.3 20:43:04 10° WNW 20:50:13 17° NNW 20:57:35 10° NNE visible
28 May 10.2 23:04:51 10° NNW 23:10:20 14° NNE 23:15:53 10° NE visible
29 May 9.3 01:17:02 10° NNW 01:28:10 37° NE 01:39:11 10° ESE visible
29 May 8.1 03:29:16 10° NW 03:41:26 67° WSW 03:53:24 10° SSE visible
29 May 10.3 22:28:10 10° NNW 22:32:45 12° N 22:37:21 10° NNE visible
30 May 9.5 00:41:08 10° NNW 00:51:27 30° NE 01:01:43 10° E visible
30 May 8.1 02:53:06 10° NNW 03:05:30 85° WSW 03:17:42 10° SSE visible
30 May 9.1 05:08:55 10° WNW 05:16:08 18° W 05:23:19 10° SW visible
30 May 10.3 21:50:46 10° NNW 21:55:05 12° N 21:59:28 10° NNE visible
31 May 9.8 00:05:14 10° NNW 00:14:33 24° NE 00:23:51 10° E visible
31 May 8.2 02:17:01 10° NNW 02:29:26 77° ENE 02:41:40 10° SSE visible
31 May 8.9 04:31:19 10° NW 04:40:39 26° WSW 04:49:54 10° SSW visible
31 May 10.3 21:12:37 10° NW 21:17:27 13° N 21:22:23 10° NNE visible
31 May 10.0 23:29:17 10° NNW 23:37:28 19° NNE 23:45:38 10° ENE visible
01 Jun 8.5 01:41:01 10° NNW 01:53:14 61° NE 02:05:17 10° SE visible
01 Jun 8.6 03:54:23 10° NW 04:05:03 37° WSW 04:15:37 10° SSW visible
01 Jun 10.3 20:34:05 10° NW 20:39:56 14° NNW 20:45:54 10° NNE visible
01 Jun 10.1 22:53:15 10° NNW 23:00:10 16° NNE 23:07:07 10° ENE visible
02 Jun 8.8 01:05:04 10° NNW 01:16:54 49° NE 01:28:35 10° SE visible
02 Jun 8.3 03:17:49 10° NW 03:29:22 49° WSW 03:38:12 19° S visible
02 Jun 10.1 22:17:02 10° NNW 22:22:43 14° NNE 22:28:25 10° NE visible
03 Jun 9.1 00:29:09 10° NNW 00:40:24 38° NE 00:51:31 10° ESE visible
03 Jun 8.1 02:41:27 10° NW 02:53:33 64° WSW 03:00:59 28° S visible
03 Jun 9.4 05:03:12 10° W 05:03:33 10° W 05:03:54 10° W visible
03 Jun 10.2 21:40:26 10° NNW 21:45:07 13° N 21:49:52 10° NNE visible
